Regional Weather Roundup
Issued by NWS

Home | Current Version | Previous Version | Graphics & Text | Print | Product List | Glossary On
Versions: 1 2 3 4 5 6 7 8 9 10 11 12 13 14 15 16 17 18 19 20 21 22 23 24 25 26 27 28 29 30 31 32 33 34 35 36 37 38 39 40 41 42 43 44 45 46 47 48 49 50
000
ASUS44 KMEG 210800
RWRTN
TENNESSEE HOURLY STATE WEATHER ROUNDUP
NATIONAL WEATHER SERVICE MEMPHIS TN
300 AM CDT MON AUG 21 2017

TNZ002-004-019-021-049-052-054-088>092-210900-
WEST TENNESSEE

CITY           SKY/WX    TMP DP  RH WIND       PRES   REMARKS
MEMPHIS INTL   CLEAR     76  73  91 CALM      30.09S
NWS MEMPHIS      N/A     75 N/A N/A MISG        N/A
JACKSON        PTCLDY    72  72 100 CALM      30.09S FOG
DYERSBURG      CLEAR     76  75  97 CALM      30.09F
$$

TNZ008-025-027-028-033-062-065-066-210900-
NORTH MIDDLE TENNESSEE

CITY           SKY/WX    TMP DP  RH WIND       PRES   REMARKS
NASHVILLE      MOCLDY    74  69  85 CALM      30.13R
CLARKSVILLE    PTCLDY    69  67  93 NE3       30.12R
SMYRNA         CLEAR     70  69  97 CALM      30.13S
CROSSVILLE     CLEAR     66  64  93 CALM      30.22S
$$

TNZ061-075-076-078-094-096-097-210900-
SOUTH MIDDLE TENNESSEE

CITY           SKY/WX    TMP DP  RH WIND       PRES   REMARKS
$$

TNZ017-018-042-046-047-210900-
NORTHEAST TENNESSEE

CITY           SKY/WX    TMP DP  RH WIND       PRES   REMARKS
TRI CITIES     MOCLDY    67  67 100 CALM      30.21S
$$

TNZ012-013-036-069-073-074-210900-
CENTRAL EAST TENNESSEE

CITY           SKY/WX    TMP DP  RH WIND       PRES   REMARKS
KNOXVILLE      CLEAR     70  67  90 E3        30.16S
OAK RIDGE      CLEAR     71  69  93 CALM      30.19R
$$

TNZ083-085-099-210900-
SOUTHEAST TENNESSEE

CITY           SKY/WX    TMP DP  RH WIND       PRES   REMARKS
CHATTANOOGA    CLEAR     73  70  90 CALM      30.16S
$$

SKY/WX REPORTED AS FAIR MEANS FEW OR NO CLOUDS BELOW
12 THOUSAND FEET.





USA.gov is the U.S. government's official web portal to all federal, state and local government web resources and services.